User: anonymous   Login
Location: Unspecified
(0.0000°N, 0.0000°E)
Time: 07:48:57
(UTC+00:00)
Language:

FLOCK 4BE 2 - Orbit

View from above orbital plane
View from above orbital plane
View from above satellite
View from above satellite

Ground track
Ground track

The orbit is defined by the following mean orbital elements,

1 60511U          26145.61379380 +.00000000 +00000-0 +92818-3 0 00002
2 60511  97.3826 232.3101 0002295  30.2404 329.8980 15.50077563    01
Epoch (UTC): 25 May 2026 14:43:51
Eccentricity: 0.0002295
inclination: 97.3826°
perigee height: 415 km
apogee height: 418 km
right ascension of ascending node: 232.3101°
argument of perigee: 30.2404°
revolutions per day: 15.50077563
mean anomaly at epoch: 329.8980°

The dashed part of the orbit path shows where the satellite is in the earth's shadow,  

DLR